This is the latest recevied weather packets stored in our database for station/object T10BNorth. If no packets are shown the sender has not sent any weather packets the latest 10 day(s).
| Time | Temp. | Humidity | Pressure | Rain* | Wind** | Luminosity | Snow |
|---|---|---|---|---|---|---|---|
| 1778266988 | 9.44° C | 48% | 1007.1 hPa | 0 mm | - | 425 W/m² | - |
| 1778266930 | 9.44° C | 50% | 1007.1 hPa | 0 mm | - | 425 W/m² | - |
| 1778266864 | 9.44° C | 52% | 1007 hPa | 0 mm | - | 425 W/m² | - |
| 1778266805 | 9.44° C | 51% | 1007 hPa | 0 mm | - | 425 W/m² | - |
| 1778266745 | 9.44° C | 51% | 1007 hPa | 0 mm | - | 425 W/m² | - |
| 1778266684 | 9.44° C | 53% | 1007 hPa | 0 mm | - | 930 W/m² | - |
| 1778266622 | 9.44° C | 52% | 1006.9 hPa | 0 mm | - | 930 W/m² | - |
| 1778266564 | 9.44° C | 52% | 1007.1 hPa | 0 mm | - | 930 W/m² | - |
| 1778266500 | 8.89° C | 49% | 1007.1 hPa | 0 mm | - | 930 W/m² | - |
| 1778266440 | 8.89° C | 50% | 1007.1 hPa | 0 mm | - | 958 W/m² | - |
| 1778266379 | 8.89° C | 49% | 1007.1 hPa | 0 mm | - | 334 W/m² | - |
| 1778266320 | 8.89° C | 49% | 1007.2 hPa | 0 mm | - | 320 W/m² | - |
| 1778266258 | 8.89° C | 51% | 1007.1 hPa | 0 mm | - | 338 W/m² | - |
| 1778266199 | 8.89° C | 51% | 1007.2 hPa | 0 mm | - | 353 W/m² | - |
| 1778266139 | 8.89° C | 53% | 1007.2 hPa | 0 mm | - | 371 W/m² | - |
| 1778266080 | 8.89° C | 51% | 1007.2 hPa | 0 mm | - | 390 W/m² | - |
| 1778266020 | 8.89° C | 50% | 1007.2 hPa | 0 mm | - | 573 W/m² | - |
| 1778265959 | 8.89° C | 52% | 1007.3 hPa | 0 mm | - | 573 W/m² | - |
| 1778265898 | 8.89° C | 53% | 1007.2 hPa | 0 mm | - | 573 W/m² | - |
| 1778265854 | 8.89° C | 54% | 1007.2 hPa | 0 mm | - | 573 W/m² | - |
| 1778265833 | 8.89° C | 51% | 1007.2 hPa | 0 mm | - | 573 W/m² | - |
| 1778265719 | 8.89° C | 52% | 1007.1 hPa | 0 mm | - | 462 W/m² | - |
| 1778265658 | 8.89° C | 51% | 1007.2 hPa | 0 mm | - | 554 W/m² | - |
| 1778265598 | 8.89° C | 53% | 1007.2 hPa | 0 mm | - | 373 W/m² | - |
| 1778265538 | 8.89° C | 53% | 1007.2 hPa | 0 mm | - | 373 W/m² | - |
* Rain latest hour (hover to see other rain measurements)
** Current wind speed in m/s (hover to see current wind gust speed)